This demonstration page uses our WeatherBlox Daily Observations layout. Learn more.

Hourly Observations for August 30, 2018

Temp ( °F °C ) Dew Point ( °F °C ) Humidity (%) Winds ( mph kmh ) Pressure ( in mb ) Visibility ( mi km ) Precip ( " mm )
12:15 am 00:15 Clear 58 14.7 56 13.4 92 92 SE 6 9 30.09 1019 10 16.09344 0 0
12:35 am 00:35 Clear 58 14.5 56 13.3 93 93 SE 7 11 30.09 1019 10 16.09344 0 0
12:55 am 00:55 Clear 58 14.7 56 13.3 91 91 SE 6 9 30.09 1019 10 16.09344 0 0
1:15 am 01:15 Clear 59 15 56 13.5 91 91 SE 7 11 30.09 1019 10 16.09344 0 0
1:35 am 01:35 Clear 59 15 56 13.5 91 91 SE 7 11 30.06 1018 10 16.09344 0 0
1:55 am 01:55 Clear 59 15 56 13.6 91 91 SE 6 9 30.06 1018 10 16.09344 0 0
2:15 am 02:15 Clear 58 14.7 56 13.6 93 93 SE 7 11 30.06 1018 10 16.09344 0 0
2:35 am 02:35 Clear 58 14.7 57 13.7 94 94 SE 7 11 30.06 1018 10 16.09344 0 0
2:55 am 02:55 Clear 59 14.8 57 14 95 95 SE 7 11 30.06 1018 10 16.09344 0 0
3:15 am 03:15 Clear 59 15 57 14.1 94 94 SE 8 13 30.06 1018 10 16.09344 0 0
3:35 am 03:35 Clear 59 15.1 58 14.5 96 96 SE 9 15 30.06 1018 10 16.09344 0 0
3:55 am 03:55 Clear 59 15 58 14.5 97 97 SE 9 15 30.06 1018 10 16.09344 0 0
4:15 am 04:15 Clear 59 15 58 14.7 98 98 SE 8 13 30.06 1018 10 16.09344 0 0
4:35 am 04:35 Clear 59 15 58 14.7 98 98 SE 7 11 30.03 1017 10 16.09344 0 0
4:55 am 04:55 Clear 58 14.6 58 14.5 99 99 SE 6 9 30.03 1017 10 16.09344 0 0
5:15 am 05:15 Partly Cloudy 58 14.6 58 14.6 100 100 SSE 6 9 30.03 1017 10 16.09344 0 0
5:35 am 05:35 Cloudy 59 15 59 15 100 100 SSE 8 13 30.03 1017 10 16.09344 0 0
5:55 am 05:55 Cloudy 60 15.5 60 15.5 100 100 SE 8 13 30 1016 10 16.09344 0 0
6:15 am 06:15 Cloudy with Mist and Fog 60 15.8 60 15.8 100 100 SE 7 11 30 1016 1.25 2.01168 0 0
6:35 am 06:35 Cloudy with Fog 60 15.8 60 15.8 100 100 SE 7 11 30 1016 0.5 0.804672 0 0
6:55 am 06:55 Cloudy with Fog 61 16.2 61 16.2 100 100 SE 6 9 30 1016 0.25 0.402336 0 0
7:15 am 07:15 Cloudy with Fog 62 16.5 62 16.5 100 100 SSE 7 11 29.97 1015 0.25 0.402336 0 0
7:35 am 07:35 Cloudy with Light Rain 62 16.5 62 16.5 100 100 SSE 9 15 29.97 1015 0 0 0 0
7:55 am 07:55 Cloudy with Light Rain 62 16.7 62 16.7 100 100 SE 8 13 29.97 1015 0 0 0 0
8:15 am 08:15 Cloudy with Fog 63 17.1 63 17.1 100 100 SSE 7 11 29.97 1015 0.25 0.402336 0 0
8:35 am 08:35 Cloudy with Fog 63 17.2 63 17.2 100 100 SE 8 13 29.97 1015 0.25 0.402336 0 0
8:55 am 08:55 Cloudy with Fog 64 17.5 64 17.5 100 100 SSE 9 15 29.97 1015 0.25 0.402336 0 0
9:15 am 09:15 Cloudy with Fog 64 17.6 64 17.6 100 100 SSE 9 15 29.97 1015 0.25 0.402336 0 0
9:35 am 09:35 Cloudy with Fog 64 17.7 64 17.7 100 100 SE 8 13 29.97 1015 0.25 0.402336 0 0
9:55 am 09:55 Cloudy with Mist and Fog 64 18 64 18 100 100 SSE 10 17 29.97 1015 0.75 1.207008 0 0
10:15 am 10:15 Cloudy with Mist and Fog 65 18.1 65 18.1 100 100 SE 9 15 29.97 1015 0.75 1.207008 0 0
10:35 am 10:35 Cloudy with Mist and Fog 65 18.5 65 18.5 100 100 SSE 10 17 29.97 1015 0.75 1.207008 0 0
10:55 am 10:55 Cloudy with Mist and Fog 66 18.7 66 18.7 100 100 SSE 12 19 29.97 1015 1.5 2.414016 0 0
11:15 am 11:15 Cloudy with Mist and Fog 66 19 66 19 100 100 SSE 9 15 29.97 1015 1 1.609344 0 0
11:35 am 11:35 Cloudy with Mist and Fog 67 19.3 67 19.3 100 100 SSE 8 13 29.94 1014 0.75 1.207008 0 0
11:55 am 11:55 Cloudy with Mist and Fog 67 19.6 67 19.6 100 100 SE 8 13 29.91 1013 0.75 1.207008 0 0
12:15 pm 12:15 Cloudy with Mist and Fog 68 20 68 20 100 100 SSE 9 15 29.91 1013 2 3.218688 0 0
12:35 pm 12:35 Cloudy with Mist and Fog 68 20.2 68 20.2 100 100 S 9 15 29.91 1013 4 6.437376 0 0
12:55 pm 12:55 Cloudy with Mist and Fog 69 20.5 69 20.5 100 100 SSE 7 11 29.91 1013 4 6.437376 0 0
1:15 pm 13:15 Cloudy with Mist and Fog 70 21 69 20.6 98 98 SSE 6 9 29.91 1013 5 8.04672 0 0
1:35 pm 13:35 Cloudy 73 22.5 69 20.6 89 89 SSE 10 17 29.91 1013 10 16.09344 0 0
1:55 pm 13:55 Mostly Cloudy 75 23.8 69 20.6 82 82 SSE 10 17 29.85 1011 10 16.09344 0 0
2:15 pm 14:15 Mostly Cloudy 75 23.7 68 20.1 80 80 SSE 6 9 29.85 1011 10 16.09344 0 0
2:35 pm 14:35 Cloudy 75 23.7 68 20.2 81 81 E 3 6 29.85 1011 10 16.09344 0 0
2:55 pm 14:55 Partly Cloudy 76 24.6 69 20.3 77 77 SSE 8 13 29.85 1011 10 16.09344 0 0
3:15 pm 15:15 Partly Cloudy 78 25.8 70 20.9 74 74 SE 10 17 29.83 1010 10 16.09344 0 0
3:35 pm 15:35 Partly Cloudy 79 26 70 20.9 74 74 SSE 9 15 29.83 1010 10 16.09344 0 0
3:55 pm 15:55 Mostly Cloudy 80 26.5 70 21.3 73 73 SE 9 15 29.8 1009 10 16.09344 0 0
4:15 pm 16:15 Mostly Cloudy 78 25.7 71 21.5 78 78 SE 9 15 29.83 1010 10 16.09344 0 0
4:35 pm 16:35 Partly Cloudy 79 25.9 71 21.5 77 77 SE 10 17 29.77 1008 10 16.09344 0 0
4:55 pm 16:55 Partly Cloudy 79 26.3 71 21.8 76 76 ESE 10 17 29.77 1008 10 16.09344 0 0
5:15 pm 17:15 Partly Cloudy 80 26.4 72 22.1 77 77 ESE 12 19 29.77 1008 10 16.09344 0 0
5:35 pm 17:35 Partly Cloudy 80 26.9 72 22.4 76 76 E 13 20 29.77 1008 10 16.09344 0 0
5:55 pm 17:55 Partly Cloudy 81 27.2 72 22 73 73 SSE 14 22 29.77 1008 10 16.09344 0 0
6:15 pm 18:15 Partly Cloudy 82 27.9 71 21.4 68 68 SSE 17 28 29.77 1008 10 16.09344 0 0
6:35 pm 18:35 Sunny 81 27.2 71 21.5 71 71 SE 13 20 29.77 1008 10 16.09344 0 0
6:55 pm 18:55 Sunny 80 26.8 71 21.4 72 72 SE 13 20 29.77 1008 10 16.09344 0 0
7:15 pm 19:15 Sunny 79 26.3 70 21.3 74 74 SE 9 15 29.77 1008 10 16.09344 0 0
7:35 pm 19:35 Sunny 77 25.2 71 21.6 81 81 ESE 8 13 29.8 1009 10 16.09344 0 0
7:55 pm 19:55 Sunny 76 24.4 71 21.7 85 85 SE 8 13 29.8 1009 10 16.09344 0 0
8:15 pm 20:15 Clear 74 23.6 71 21.7 89 89 ESE 7 11 29.8 1009 10 16.09344 0 0
8:35 pm 20:35 Clear 74 23.2 71 21.6 91 91 ESE 7 11 29.8 1009 10 16.09344 0 0
8:55 pm 20:55 Clear 72 22.3 71 21.4 95 95 ESE 7 11 29.8 1009 10 16.09344 0 0
9:15 pm 21:15 Clear 71 21.8 70 21 95 95 ESE 7 11 29.83 1010 10 16.09344 0 0
9:35 pm 21:35 Clear 71 21.5 70 21 97 97 ESE 8 13 29.83 1010 10 16.09344 0 0
9:55 pm 21:55 Clear 71 21.5 69 20.8 96 96 SE 8 13 29.85 1011 10 16.09344 0 0
10:15 pm 22:15 Clear 71 21.5 70 21 97 97 SE 8 13 29.83 1010 10 16.09344 0 0
10:35 pm 22:35 Clear 70 21.2 69 20.7 97 97 SE 8 13 29.83 1010 10 16.09344 0 0
10:55 pm 22:55 Clear 70 21.1 69 20.6 97 97 SSE 9 15 29.83 1010 10 16.09344 0 0
11:15 pm 23:15 Clear 70 21 69 20.5 97 97 SSE 8 13 29.83 1010 10 16.09344 0 0
11:35 pm 23:35 Clear 69 20.8 69 20.5 98 98 SSE 9 15 29.83 1010 10 16.09344 0 0
11:55 pm 23:55 Clear 69 20.7 69 20.5 99 99 SSE 9 15 29.83 1010 10 16.09344 0 0

Powered by AerisWeather